Location: Observatoire
(46.1952°N, 5.3391°E)
Time: 07:59:49
(UTC+01:00)

Altair - Pass Details

Date: 18 February 2026
Orbit: 1502 x 1682 km, 47.2° (Epoch: 9 March)

Event Time Altitude Azimuth Distance (km) Brightness Sun altitude
Rises 10:09:17 0° 288° (WNW) 4,698 9.5 21.6°
Reaches altitude 10° 10:12:18 10° 287° (WNW) 3,734 9.1 22.0°
Maximum altitude 10:21:44 72° 205° (SSW) 1,662 8.2 23.1°
Drops below altitude 10° 10:31:31 10° 124° (SE) 3,868 11.2 24.1°
Sets 10:34:41 0° 122° (ESE) 4,873 11.3 24.5°
